Oldest pages

Jump to navigation Jump to search

Showing below up to 250 results in range #51 to #300.

View (previous 250 | next 250) (20 | 50 | 100 | 250 | 500)

  1. Centro intellettuale‏‎ (21:20, 13 March 2015)
  2. Centro emotivo‏‎ (21:21, 13 March 2015)
  3. Centro motorio‏‎ (21:22, 13 March 2015)
  4. Centro sessuale‏‎ (21:23, 13 March 2015)
  5. Centro vegetativo‏‎ (21:25, 13 March 2015)
  6. Clima‏‎ (21:27, 13 March 2015)
  7. Clima, caratteristiche del‏‎ (21:28, 13 March 2015)
  8. Clima, origine del‏‎ (21:30, 13 March 2015)
  9. Comportamento‏‎ (21:31, 13 March 2015)
  10. Comportamento, errori del‏‎ (21:32, 13 March 2015)
  11. Comportamento, fattori che intervengono nel‏‎ (21:34, 13 March 2015)
  12. Comportamento, funzione del‏‎ (21:36, 13 March 2015)
  13. Comportamento, limiti del‏‎ (21:37, 13 March 2015)
  14. Comportamento, valutazione del‏‎ (21:37, 13 March 2015)
  15. Comunicazione tra persone‏‎ (21:39, 13 March 2015)
  16. Contenuti mentali‏‎ (21:39, 13 March 2015)
  17. Compresenza, campo di‏‎ (21:42, 13 March 2015)
  18. Coscienza‏‎ (21:43, 13 March 2015)
  19. Coscienza, disfunzioni della‏‎ (21:43, 13 March 2015)
  20. Coscienza, livelli di. Rapporti‏‎ (21:46, 13 March 2015)
  21. Coscienza, meccanismi della‏‎ (21:49, 13 March 2015)
  22. Coscienza, vie associative e astrattive della‏‎ (21:51, 13 March 2015)
  23. Distensione, pratiche di‏‎ (22:35, 13 March 2015)
  24. Dolore‏‎ (22:36, 13 March 2015)
  25. Dolore, vie del‏‎ (22:37, 13 March 2015)
  26. Dolore, tempo del‏‎ (22:38, 13 March 2015)
  27. Forma‏‎ (22:40, 13 March 2015)
  28. Ginnastica psicofisica‏‎ (22:40, 13 March 2015)
  29. Darwinismo sociale‏‎ (20:50, 20 March 2015)
  30. Demagogia‏‎ (20:52, 20 March 2015)
  31. Democrazia‏‎ (20:53, 20 March 2015)
  32. Democrazia cristiana‏‎ (20:55, 20 March 2015)
  33. Democrazia rivoluzionaria‏‎ (20:56, 20 March 2015)
  34. Destrutturazione‏‎ (20:57, 20 March 2015)
  35. Dichiarazione per la Buona Conoscenza‏‎ (16:48, 22 March 2015)
  36. Dipendenza‏‎ (20:29, 29 March 2015)
  37. Diplomazia‏‎ (20:30, 29 March 2015)
  38. Disoccupazione‏‎ (20:35, 29 March 2015)
  39. Dispotismo‏‎ (20:41, 29 March 2015)
  40. Disumanizzazione‏‎ (21:06, 29 March 2015)
  41. Dittatura‏‎ (20:24, 30 March 2015)
  42. Effetto dimostrazione‏‎ (20:28, 30 March 2015)
  43. Elezione‏‎ (20:29, 30 March 2015)
  44. Élite‏‎ (20:30, 30 March 2015)
  45. Esercito‏‎ (20:31, 30 March 2015)
  46. Evoluzione‏‎ (20:34, 30 March 2015)
  47. Famiglia‏‎ (20:34, 30 March 2015)
  48. Fede‏‎ (20:35, 30 March 2015)
  49. Filantropia‏‎ (20:37, 30 March 2015)
  50. Fronte d'azione‏‎ (20:40, 30 March 2015)
  51. Generazioni‏‎ (20:41, 30 March 2015)
  52. Gerarchia‏‎ (20:41, 30 March 2015)
  53. Gestione‏‎ (20:41, 30 March 2015)
  54. Gesuitismo‏‎ (20:42, 30 March 2015)
  55. Gioco‏‎ (20:52, 30 March 2015)
  56. Fraternità‏‎ (20:54, 30 March 2015)
  57. Feudalesimo‏‎ (20:55, 30 March 2015)
  58. Femminismo‏‎ (20:56, 30 March 2015)
  59. Dogmatismo‏‎ (22:01, 30 March 2015)
  60. Ecologia‏‎ (22:02, 30 March 2015)
  61. Ecologismo‏‎ (22:02, 30 March 2015)
  62. Educazione‏‎ (22:04, 30 March 2015)
  63. Emancipazione‏‎ (22:05, 30 March 2015)
  64. Gruppo sociale‏‎ (22:06, 30 March 2015)
  65. Guerra‏‎ (22:07, 30 March 2015)
  66. Guerra civile‏‎ (22:07, 30 March 2015)
  67. Guerra fredda‏‎ (22:07, 30 March 2015)
  68. MappaVisitatori‏‎ (21:27, 31 March 2015)
  69. Idealismo‏‎ (15:28, 4 April 2015)
  70. Illuminismo‏‎ (05:42, 5 April 2015)
  71. Immigrazione‏‎ (05:57, 5 April 2015)
  72. Imperialismo‏‎ (05:58, 5 April 2015)
  73. Impresa-società‏‎ (13:53, 5 April 2015)
  74. Introduzione all'Economia del Nuovo Umanesimo‏‎ (14:00, 5 April 2015)
  75. Bene sociale‏‎ (14:10, 5 April 2015)
  76. Capitalismo‏‎ (14:12, 5 April 2015)
  77. Collettivismo‏‎ (14:13, 5 April 2015)
  78. Comunismo‏‎ (14:14, 5 April 2015)
  79. Consumismo‏‎ (14:15, 5 April 2015)
  80. Cooperazione‏‎ (14:17, 5 April 2015)
  81. Economia‏‎ (14:29, 5 April 2015)
  82. Amore‏‎ (20:29, 3 June 2015)
  83. Futuro Verde‏‎ (11:00, 8 July 2015)
  84. Individualismo‏‎ (17:19, 9 July 2015)
  85. Iniziativa‏‎ (17:22, 9 July 2015)
  86. Innovazione‏‎ (17:23, 9 July 2015)
  87. Internazionale Umanista‏‎ (17:37, 9 July 2015)
  88. Leader‏‎ (18:39, 9 July 2015)
  89. Legge‏‎ (18:42, 9 July 2015)
  90. Legislazione‏‎ (18:43, 9 July 2015)
  91. Legittimismo‏‎ (18:45, 9 July 2015)
  92. Legittimità‏‎ (18:46, 9 July 2015)
  93. Liberalismo‏‎ (18:47, 9 July 2015)
  94. Libertà‏‎ (19:04, 9 July 2015)
  95. Documento del Nuovo Umanesimo‏‎ (19:23, 9 July 2015)
  96. Machiavellismo‏‎ (21:20, 14 July 2015)
  97. Manipolazione‏‎ (21:21, 14 July 2015)
  98. Marginalità‏‎ (21:23, 14 July 2015)
  99. Marxismo-leninismo‏‎ (21:25, 14 July 2015)
  100. Materialismo‏‎ (21:30, 14 July 2015)
  101. Metalinguaggio‏‎ (21:32, 14 July 2015)
  102. Metalinguistica‏‎ (21:33, 14 July 2015)
  103. Metodo‏‎ (21:35, 14 July 2015)
  104. Mobilità sociale‏‎ (21:46, 14 July 2015)
  105. Modernizzazione‏‎ (21:04, 20 July 2015)
  106. Momento storico‏‎ (21:07, 20 July 2015)
  107. Mondializzazione‏‎ (21:36, 20 July 2015)
  108. Movimento antibellico‏‎ (21:40, 20 July 2015)
  109. Nazionalismo‏‎ (20:04, 21 July 2015)
  110. Nazionalsocialismo‏‎ (20:05, 21 July 2015)
  111. Nazione‏‎ (20:09, 21 July 2015)
  112. Neocolonialismo‏‎ (20:11, 21 July 2015)
  113. Neoliberalismo‏‎ (20:13, 21 July 2015)
  114. Nichilismo‏‎ (20:15, 21 July 2015)
  115. Nord-sud‏‎ (20:27, 21 July 2015)
  116. Organizzazione delle Nazioni Unite‏‎ (20:35, 21 July 2015)
  117. Nuova destra‏‎ (20:36, 21 July 2015)
  118. Nuova sinistra‏‎ (20:38, 21 July 2015)
  119. Nuovi poveri‏‎ (20:40, 21 July 2015)
  120. Nuovo Umanesimo‏‎ (20:45, 21 July 2015)
  121. Sfruttamento‏‎ (20:50, 21 July 2015)
  122. Opinione pubblica‏‎ (20:53, 21 July 2015)
  123. Opportunismo‏‎ (20:55, 21 July 2015)
  124. Opposizione‏‎ (20:57, 21 July 2015)
  125. Oppressione‏‎ (20:58, 21 July 2015)
  126. Opzione‏‎ (21:03, 21 July 2015)
  127. Organizzazioni non governative‏‎ (21:06, 21 July 2015)
  128. Organizzazioni sociali di base‏‎ (21:07, 21 July 2015)
  129. Ortodossia‏‎ (21:09, 21 July 2015)
  130. Ozio‏‎ (21:10, 21 July 2015)
  131. Paesaggio di formazione‏‎ (19:55, 25 July 2015)
  132. Paesaggio esterno‏‎ (19:56, 25 July 2015)
  133. Paesaggio interno‏‎ (19:57, 25 July 2015)
  134. Paesaggio umano‏‎ (19:58, 25 July 2015)
  135. Paesi in via di sviluppo‏‎ (19:59, 25 July 2015)
  136. Paesi sviluppati‏‎ (20:00, 25 July 2015)
  137. Partito politico‏‎ (20:03, 25 July 2015)
  138. Paternalismo‏‎ (20:03, 25 July 2015)
  139. Patriarcato‏‎ (22:30, 26 July 2015)
  140. Patriottismo‏‎ (22:31, 26 July 2015)
  141. Personalismo‏‎ (22:35, 26 July 2015)
  142. Popolo‏‎ (22:37, 26 July 2015)
  143. Populismo‏‎ (22:40, 26 July 2015)
  144. Potere‏‎ (22:41, 26 July 2015)
  145. Problema dell'alimentazione‏‎ (22:48, 26 July 2015)
  146. Problema globale‏‎ (22:49, 26 July 2015)
  147. Problema nazionale‏‎ (22:50, 26 July 2015)
  148. Proprietà‏‎ (22:52, 26 July 2015)
  149. Qualità della vita‏‎ (20:13, 27 July 2015)
  150. Questione femminile‏‎ (20:14, 27 July 2015)
  151. Radicalismo‏‎ (20:16, 27 July 2015)
  152. Reciprocità‏‎ (20:17, 27 July 2015)
  153. Regime‏‎ (20:18, 27 July 2015)
  154. Religione‏‎ (20:21, 27 July 2015)
  155. Religiosità‏‎ (20:23, 27 July 2015)
  156. Repressione‏‎ (20:23, 27 July 2015)
  157. Revanscismo‏‎ (20:25, 27 July 2015)
  158. Riformismo‏‎ (20:26, 27 July 2015)
  159. Riformismo sociale‏‎ (20:26, 27 July 2015)
  160. Rinascimento‏‎ (20:28, 27 July 2015)
  161. Riso‏‎ (20:29, 27 July 2015)
  162. Rivoluzione‏‎ (20:30, 27 July 2015)
  163. Ruolo sociale‏‎ (20:31, 27 July 2015)
  164. Centri‏‎ (14:55, 30 July 2015)
  165. Centri di risposta‏‎ (15:00, 30 July 2015)
  166. Scelta‏‎ (12:31, 1 August 2015)
  167. Schiavitù‏‎ (12:45, 1 August 2015)
  168. Scienza‏‎ (12:47, 1 August 2015)
  169. Sciovinismo‏‎ (12:49, 1 August 2015)
  170. Separatismo‏‎ (12:51, 1 August 2015)
  171. Autodeterminazione‏‎ (12:54, 1 August 2015)
  172. Sicurezza‏‎ (13:01, 1 August 2015)
  173. Sicurezza (o previdenza) sociale‏‎ (13:03, 1 August 2015)
  174. Siloismo‏‎ (13:04, 1 August 2015)
  175. Sindacalismo‏‎ (13:06, 1 August 2015)
  176. Sistema elettorale‏‎ (13:08, 1 August 2015)
  177. Socialdemocrazia‏‎ (13:10, 1 August 2015)
  178. Socialismo‏‎ (13:12, 1 August 2015)
  179. Società‏‎ (13:13, 1 August 2015)
  180. Società postindustriale‏‎ (13:14, 1 August 2015)
  181. Solidarietà‏‎ (13:17, 1 August 2015)
  182. Spazio‏‎ (13:18, 1 August 2015)
  183. Stato‏‎ (13:19, 1 August 2015)
  184. Stile di vita‏‎ (13:21, 1 August 2015)
  185. Diritti umani‏‎ (13:35, 1 August 2015)
  186. Lettere ai Miei Amici‏‎ (13:38, 1 August 2015)
  187. Storiologia‏‎ (13:41, 1 August 2015)
  188. Stratificazione sociale‏‎ (13:42, 1 August 2015)
  189. Struttura‏‎ (13:46, 1 August 2015)
  190. Strutturalismo‏‎ (13:47, 1 August 2015)
  191. Superamento del vecchio da parte del nuovo‏‎ (13:48, 1 August 2015)
  192. La Comunità per lo Sviluppo Umano‏‎ (15:07, 1 August 2015)
  193. Convergenza delle Culture‏‎ (15:45, 1 August 2015)
  194. Punta de Vacas‏‎ (15:11, 2 August 2015)
  195. Parco di Studio e Riflessione di Punta de Vacas‏‎ (15:21, 2 August 2015)
  196. Metodo Strutturale Dinamico‏‎ (15:37, 2 August 2015)
  197. Psicologia dell’immagine‏‎ (20:34, 2 August 2015)
  198. Tecnica‏‎ (22:14, 2 August 2015)
  199. Il tema più importante‏‎ (22:15, 2 August 2015)
  200. Tempo‏‎ (22:16, 2 August 2015)
  201. Tesi del Partito Umanista‏‎ (22:20, 2 August 2015)
  202. Tirannia‏‎ (22:21, 2 August 2015)
  203. Tolleranza‏‎ (22:22, 2 August 2015)
  204. Tolstojsmo‏‎ (22:24, 2 August 2015)
  205. Totalitarismo‏‎ (22:26, 2 August 2015)
  206. Allucinazione‏‎ (16:35, 3 August 2015)
  207. Apparati‏‎ (16:38, 3 August 2015)
  208. Appercezione‏‎ (16:38, 3 August 2015)
  209. Apprendimento‏‎ (16:39, 3 August 2015)
  210. Associazione‏‎ (16:40, 3 August 2015)
  211. Astrazione‏‎ (16:41, 3 August 2015)
  212. Attenzione‏‎ (16:42, 3 August 2015)
  213. Attenzione direzionata‏‎ (16:44, 3 August 2015)
  214. Attenzione tesa‏‎ (16:45, 3 August 2015)
  215. Autoconoscenza, pratiche di‏‎ (16:46, 3 August 2015)
  216. Autotrasferenza‏‎ (16:47, 3 August 2015)
  217. Ubicazione personale‏‎ (19:57, 16 August 2015)
  218. Uguaglianza‏‎ (20:00, 16 August 2015)
  219. Umanesimo‏‎ (20:03, 16 August 2015)
  220. Umanesimo antropocentrico‏‎ (20:06, 16 August 2015)
  221. Umanesimo cristiano‏‎ (20:08, 16 August 2015)
  222. Il Rapporto Tokarev‏‎ (20:10, 16 August 2015)
  223. Umanesimo empirico‏‎ (20:11, 16 August 2015)
  224. Umanesimo esistenzialista‏‎ (20:13, 16 August 2015)
  225. Umanesimo filosofico‏‎ (20:20, 16 August 2015)
  226. Umanesimo marxista‏‎ (20:21, 16 August 2015)
  227. Umanesimo teocentrico‏‎ (20:26, 16 August 2015)
  228. Umanista‏‎ (20:30, 16 August 2015)
  229. Umanista I, Manifesto‏‎ (20:32, 16 August 2015)
  230. Umanista II, Manifesto‏‎ (20:34, 16 August 2015)
  231. Umanista, parole affini‏‎ (20:35, 16 August 2015)
  232. Umanità‏‎ (20:38, 16 August 2015)
  233. Umanitarismo‏‎ (20:39, 16 August 2015)
  234. Utopia‏‎ (20:40, 16 August 2015)
  235. Atteggiamento umanista‏‎ (21:26, 16 August 2015)
  236. Intenzione‏‎ (21:28, 16 August 2015)
  237. Immaginazione‏‎ (13:59, 17 August 2015)
  238. Immagine‏‎ (14:00, 17 August 2015)
  239. Impulsi‏‎ (14:04, 17 August 2015)
  240. Immagine, funzione della‏‎ (14:07, 17 August 2015)
  241. Insogni‏‎ (14:12, 17 August 2015)
  242. Insogno, nucleo di‏‎ (14:12, 17 August 2015)
  243. Intenzionalità‏‎ (14:13, 17 August 2015)
  244. Interesse‏‎ (14:16, 17 August 2015)
  245. Istinti di conservazione della specie‏‎ (14:18, 17 August 2015)
  246. Luce, sensazione della‏‎ (14:18, 17 August 2015)
  247. Memoria‏‎ (14:19, 17 August 2015)
  248. Memoria, errori della‏‎ (14:19, 17 August 2015)
  249. Memoria, frange di‏‎ (14:22, 17 August 2015)
  250. Memoria, funzione della‏‎ (14:22, 17 August 2015)

View (previous 250 | next 250) (20 | 50 | 100 | 250 | 500)